Weather in Ivanivka

Ukraine / Kharkiv Region     49°00′20″N   36°51′38″E
temp.,
°C
wind,
m/s
gust,
m/s
humid.,
%
clouds,
%
prec.,
mm/h
press.,
hPa
HPBL,
m
22 october, fri
fri2200:00+11ssw91956100 0.0 1014664
03:00+10ssw91777100 0.0 1012611
06:00+9sw8169253 0.0 1012506
09:00+11sw81385100 0.0 1012545
12:00+17wsw8115757 0.0 10131101
15:00+19wsw79436 0.0 10121492
18:00+15wsw3555100 0.0 101357
21:00+13wsw3362100 0.0 101536
23 october, sat
sat2300:00+12sw3365100 0.0 101542
03:00+11sw4768100 0.0 1015115
06:00+10sw4872100 0.0 1015127
09:00+12sw4864100 0.0 1015284
12:00+16wsw4745100 0.0 1015619
15:00+13w5961100 0.1 1016771
18:00+11sw4973100 0.2 1016492
21:00+9wnw510775 0.2 1018307
24 october, sun
sun2400:00+5nw36630 0.0 1019120
03:00+4wnw35690 0.0 102084
06:00+3wnw357761 0.0 102088
09:00+5wnw466528 0.0 1021296
12:00+9wnw674967 0.0 10211547
15:00+10nw683872 0.0 10201943
18:00+7nw365097 0.0 1021123
21:00+6nw5971100 0.0 1022869
25 october, mon
mon2500:00+3nw612745 0.0 1023594
03:00+2nw6118029 0.0 1024580
06:00+1nnw5108356 0.0 1027487
09:00+2nnw68707 0.0 1029754
12:00+5n674821 0.0 10301224
15:00+6n56405 0.0 10311337
18:00+3n354771 0.0 103372
21:00+1nne23535 0.0 103432
26 october, tue
tue2600:000ne11600 0.0 103510
03:00−1ne11630 0.0 103510
06:00−1ene11670 0.0 103510
09:00+2ese12550 0.0 1036156
12:00+6se23390 0.0 1034738
15:00+8sse22335 0.0 1033930
18:00+4sse224414 0.0 103310
21:00+3sse335055 0.0 103238